Showing default

SNUSAT-2, 43782

Orbit data source: Space-Track

SNUSAT-2, 43782 is a payload satellite owned by SNU (KR) in SSO that was launched on Mon, 03 Dec 2018 UTC via an FALCON 9 launch vehicle from the Air Force Western Test Range (AFWTR). Payload-class satellites include a variety of spacecraft equipped with specific instruments for various scientific and technological missions. These include communications satellites like Starlink; space stations such as the ISS; scientific satellites like the Hubble; Earth observation satellites from companies like Planet Labs, Umbra, and HawkEye 360; GPS; miniature CubeSats for education and research; and military/defense satellites.

Loading next visibility...
Identifier
43782, 2018-099AA
Orbit
SSO
Country
Flag of UnknownUnknown / SKOR
Related business
Manufacturer
SNU
Mission
Operational Amateur Technology
Bus & Motor
CUBESAT 3U, Unknown motor
Mass
4 kg wet, 4 kg dry
Launch date (UTC)
2018-12-03 (7 years ago)
Launch vehicle
FALCON 9
Launch site
Air Force Western Test Range (AFWTR)
Object type
Payload
Rocket body
Debris
Shape & HBR
Box, 0.1 m
Radar Cross Section
0.035 m², Small (<0.1 m²)

Expand to show TLE details & history
Last TLE update: 13 hours ago

TLE from 13 hours ago
0 SNUSAT-2
1 43782U 18099AA  26036.66924419  .00014973  00000-0  70588-3 0  9994
2 43782  97.4258  92.1548 0011682  42.9763 317.2382 15.19524555393046
Epoch: 2026-02-05T16:03Z
TLE epoch observation values (Epoch: 2026-02-05T16:03:42.698Z)
Latitude
-0.00002°
Longitude
75.40874°
Altitude
504.463 km
Speed
7.615 km/s
True Right ascension
06h 08m 37s
True Declination
0° 00' 00"
Sunlit
Object was in full shadow at epoch
Visualization orbit readout
Latitude
Unknown
Longitude
Unknown
Altitude
Unknown
Speed
Unknown
Apparent Right ascension
Unknown
Apparent Declination
Unknown
Sunlit
N/A
Visualization observer readout
Local Sidereal Time
07:16:46
Azimuth
Unknown
Elevation
Unknown
Doppler factor
Unknown
Orbital elements
Apogee altitude
512.284 km
Perigee altitude
496.204 km
Semi-major axis
6,882.381 km
Eccentricity
0.00117
Inclination
97.4258°
RAAN
92.1548°
Arg. of periapsis
42.9763°
True anomaly
317.14721°
Mean anomaly
317.2382°
Eccentric anomaly
317.19272°
Mean motion
3.80133 °/min
Orbital period
94.7 mins
BSTAR
0.00070588
Loading maneuver chart data...
Computing Atmospheric mass density...
Loading historical data...
Loading historical data...
Loading historical data...
Loading historical data...
Loading historical data...
Loading historical data...
Loading historical data...

Documentation

Showing up to 5 results
|